GFSGBSN_500_rhum_000.txt.gz
RH
12 18 20 30 38 36 22 11 12 9 1 2 2 4 5 5 5 4 4 4 4 4 5 4 4 4 5 6 6 4 6 6 7 7 8 7 6 5 6 6 6 7 7 6 5 5 6
15 13 15 21 26 17 18 12 13 2 1 2 3 5 6 6 5 3 3 3 4 5 5 6 7 7 6 6 6 7 8 8 9 10 11 11 12 11 11 10 9 10 11 10 8 7 7
21 20 21 19 24 22 12 14 3 1 2 4 5 6 6 6 5 4 4 4 3 3 5 5 6 10 8 11 8 8 9 10 12 14 15 15 14 14 17 16 16 15 12 12 12 12 12
32 29 30 30 24 9 11 11 0 2 5 6 6 6 6 5 3 4 4 4 4 4 4 4 5 6 7 11 12 12 12 12 13 14 15 16 17 19 20 21 26 18 25 62 24 17 17
29 27 26 28 14 8 12 2 0 2 5 6 6 5 4 4 4 4 5 6 6 5 5 5 5 5 6 7 7 9 11 12 12 13 13 14 15 19 22 21 38 72 39 27 26 21 20
24 19 20 17 9 10 9 0 0 1 4 6 7 7 7 7 7 6 6 6 6 7 7 6 6 7 5 6 7 8 7 9 11 12 13 14 14 14 16 18 25 30 29 25 24 24 26
16 14 12 10 10 8 7 1 0 1 1 2 4 8 8 10 9 8 8 5 5 6 6 7 5 5 6 6 7 7 8 9 11 14 15 16 16 19 19 22 26 27 25 22 22 24 26
12 9 8 9 9 7 4 1 0 0 1 1 2 3 4 4 6 6 5 8 8 7 6 6 6 4 4 6 8 8 8 9 11 14 16 17 20 23 24 26 27 27 24 25 28 23 21
6 6 8 9 8 6 4 2 2 1 0 1 2 2 3 5 6 6 5 4 7 8 7 5 5 4 4 5 8 11 10 10 12 13 16 17 19 22 24 26 30 28 29 27 26 26 19
7 7 6 6 6 6 6 6 5 4 2 2 1 2 2 2 3 5 5 5 5 5 5 5 4 4 6 7 13 15 15 12 12 15 18 18 20 22 23 24 25 27 26 27 28 29 28
9 8 9 9 9 8 7 6 6 4 5 6 5 3 3 2 3 3 3 3 3 3 4 6 6 11 11 14 20 20 21 15 14 16 19 21 22 22 22 23 25 24 24 25 26 27 29
9 10 10 10 10 9 8 6 5 4 11 12 10 7 8 8 7 7 7 7 6 5 5 8 16 23 24 24 26 25 23 21 17 19 19 20 21 21 21 21 25 24 23 24 22 27 31
9 9 10 11 13 11 7 7 5 5 6 13 16 18 11 8 10 10 11 12 14 12 17 22 26 28 28 31 35 33 28 25 25 22 21 20 13 19 23 24 22 24 25 24 26 34 33
10 8 9 11 12 10 9 10 6 5 6 12 19 28 20 13 12 14 16 17 18 19 20 22 22 23 23 23 25 36 41 29 26 24 25 21 21 16 23 24 26 30 34 35 35 34 34
13 11 11 11 12 10 8 8 7 6 7 11 20 34 27 24 18 14 17 19 17 18 20 19 19 19 19 24 30 32 34 34 28 26 25 21 20 20 28 32 32 37 36 38 38 40 37
15 14 15 13 11 10 10 9 8 7 7 13 20 28 33 30 31 30 28 23 18 15 15 18 20 31 39 34 42 42 35 36 30 29 20 14 20 30 31 34 33 36 37 38 40 41 45
16 16 15 14 12 11 10 10 9 8 6 10 15 18 28 38 45 52 53 57 59 55 54 54 48 42 40 41 46 44 40 34 30 21 19 22 22 28 32 36 37 39 44 49 50 59 59
11 15 15 14 13 12 11 13 11 9 8 9 13 17 25 34 43 52 47 54 51 60 54 48 41 38 38 42 44 40 38 36 31 31 31 32 33 32 38 40 43 47 57 61 62 55 55
12 14 14 14 13 12 12 14 13 10 9 10 12 16 20 27 39 44 50 51 59 57 55 50 45 49 52 53 48 46 42 46 40 39 40 38 33 33 42 44 35 37 50 57 62 63 50
16 15 14 14 13 13 13 15 14 12 12 12 12 18 18 21 28 35 45 53 53 58 62 59 56 54 59 60 58 54 51 42 50 44 41 37 42 42 50 45 44 43 48 62 69 57 63
18 17 16 14 15 15 15 15 14 12 12 12 13 16 16 18 19 21 32 43 52 55 61 66 69 68 65 61 60 57 55 54 53 50 58 61 53 53 63 54 54 54 53 74 77 76 71
18 18 18 18 18 18 16 16 14 13 12 13 14 16 18 19 19 20 24 26 27 36 49 46 54 51 54 53 48 51 58 60 56 54 55 54 47 48 48 52 56 51 68 66 64 66 67
22 20 19 19 19 19 17 16 15 14 13 15 16 18 20 21 23 25 25 27 28 28 28 30 33 38 41 43 43 41 41 42 41 44 46 49 54 52 43 52 52 52 63 60 54 69 77
18 19 20 20 19 18 17 15 15 16 17 16 18 17 19 22 25 28 28 29 28 30 33 35 38 40 38 39 39 39 40 43 48 54 59 62 65 62 58 55 50 59 76 77 76 73 88
16 15 15 14 15 16 15 14 13 13 14 14 14 15 16 25 45 76 78 45 34 68 58 36 41 40 45 52 52 55 60 63 66 62 62 64 66 66 65 61 50 54 77 81 81 78 90
57 40 19 14 14 14 13 12 12 13 13 12 12 12 17 34 54 71 82 71 72 74 84 65 42 45 58 63 66 61 57 57 54 57 60 65 66 70 70 62 47 60 79 74 78 70 100
92 84 75 43 22 12 11 10 10 10 8 10 11 17 27 36 59 84 96 93 93 91 93 86 65 48 45 51 68 77 73 75 72 72 74 73 78 76 78 72 54 73 70 82 93 100 91
98 94 88 81 78 41 29 21 31 29 16 19 19 39 52 59 74 89 98 100 98 92 90 70 58 55 55 51 55 71 65 77 71 74 79 85 86 92 78 83 69 86 95 100 100 90 99
100 100 100 100 100 71 50 48 46 40 50 43 53 64 73 78 86 95 100 100 95 99 86 72 70 79 82 86 80 73 73 66 69 56 75 80 100 89 93 96 86 85 97 80 100 100 93

GFSGBSN_500_rhum_006.txt.gz
RH
28 26 33 63 66 29 22 17 27 15 10 3 2 2 2 2 2 2 2 3 3 3 3 4 4 5 6 8 9 10 10 9 12 11 5 5 6 6 7 7 6 4 4 4 6 7 8
24 32 49 58 44 39 19 15 17 10 2 3 3 4 4 4 4 3 3 4 3 4 5 5 5 6 6 7 9 10 11 13 14 14 14 13 12 9 7 6 6 5 5 5 6 7 11
40 22 54 43 30 22 15 15 7 3 3 4 5 5 4 4 4 4 5 5 4 4 4 5 6 6 8 10 12 12 13 13 14 14 16 17 17 19 17 13 12 10 12 9 10 12 14
16 35 45 42 21 18 14 4 2 3 4 5 4 4 4 4 4 4 4 5 5 5 5 5 6 6 7 9 11 12 12 12 12 13 14 17 19 20 20 20 25 16 14 13 12 13 15
29 18 21 25 17 12 5 2 3 5 5 5 3 3 3 3 3 3 3 4 4 4 4 5 6 7 7 8 8 8 8 10 11 12 12 14 15 18 17 17 20 17 9 8 10 16 12
29 32 26 11 9 9 2 2 3 5 6 4 3 3 3 3 3 3 3 4 4 4 5 5 5 5 5 7 7 7 8 8 10 12 14 16 15 15 17 16 18 18 16 16 12 13 12
30 29 8 7 10 1 1 2 3 5 6 6 6 4 3 4 5 5 4 4 5 4 3 4 4 4 4 4 5 7 9 8 9 12 14 17 15 16 16 19 17 17 16 16 15 11 15
22 23 7 7 3 0 1 2 3 5 6 7 7 6 5 7 8 8 7 6 6 6 5 5 4 4 4 4 5 6 11 11 10 12 14 16 17 18 17 20 20 18 20 19 19 17 13
20 14 8 4 0 0 2 2 3 6 7 7 7 7 7 8 8 9 8 7 6 8 7 7 5 4 4 4 6 8 13 16 13 12 13 15 15 15 16 18 20 21 22 23 20 22 17
17 12 9 4 1 0 2 3 3 3 3 5 6 7 8 8 8 8 7 6 6 6 7 8 6 5 5 5 9 10 16 20 20 14 13 14 13 13 12 13 17 20 19 20 22 23 24
16 14 11 5 2 0 0 1 2 3 3 4 5 4 3 3 3 3 5 6 6 6 6 6 5 5 5 6 13 17 22 25 27 23 19 17 16 16 15 10 12 16 19 19 22 24 30
15 14 12 8 4 2 1 0 0 1 1 1 1 1 1 1 2 2 2 3 3 4 4 4 6 7 7 9 19 26 29 29 31 34 26 22 22 19 22 14 10 12 18 21 25 28 37
8 8 9 9 8 7 6 5 4 4 4 4 4 4 5 6 7 7 6 5 6 7 9 13 15 14 15 24 28 24 21 21 23 24 30 30 24 22 23 18 13 15 18 23 25 27 31
8 7 8 8 7 6 4 4 4 5 6 11 15 18 20 20 13 10 10 11 10 12 20 17 20 22 23 23 20 18 15 20 26 28 27 28 32 24 20 14 20 21 21 22 26 25 33
10 9 9 9 8 7 7 7 6 4 5 6 10 17 26 26 21 16 14 14 15 15 18 18 19 20 18 18 14 13 31 36 30 30 33 35 32 27 19 20 24 24 27 29 30 32 34
10 10 10 10 10 9 9 11 10 7 6 5 7 15 34 32 24 24 25 27 26 27 25 22 19 19 26 42 36 38 33 34 40 41 41 37 32 31 30 35 37 38 32 30 34 38 37
11 9 10 10 11 13 11 10 10 7 7 6 6 11 24 32 28 30 34 39 44 43 43 47 47 49 47 43 38 35 43 38 42 37 40 39 43 38 35 36 36 37 36 34 38 51 47
12 10 9 10 10 12 12 10 11 8 7 7 7 10 15 23 30 28 32 38 40 44 44 42 49 50 47 40 36 42 45 50 51 50 44 42 44 42 44 44 47 50 50 49 48 48 50
16 13 10 10 10 13 13 12 11 10 10 9 7 8 10 14 18 22 26 33 34 38 47 52 51 47 48 51 50 48 53 61 65 58 54 50 48 51 52 44 44 49 55 53 55 56 59
17 16 14 13 12 16 14 12 12 11 12 11 9 8 9 12 14 17 17 19 21 26 36 45 52 59 61 65 67 64 64 58 54 51 48 44 43 42 42 44 47 56 61 61 54 52 49
19 16 17 16 15 16 16 14 13 12 12 13 12 10 10 11 14 17 16 17 17 20 20 23 24 27 31 35 37 40 42 42 41 39 38 37 38 44 53 56 55 58 60 56 55 57 53
23 18 14 15 16 17 17 16 14 12 13 14 13 11 11 10 14 15 16 16 20 24 26 30 33 33 31 34 36 36 37 37 40 43 47 51 56 58 61 61 58 59 60 56 54 52 46
28 20 16 14 13 15 16 16 14 12 13 14 15 13 11 12 14 17 19 20 23 25 37 54 60 68 70 47 54 59 61 56 41 39 50 59 56 56 56 55 53 58 51 45 44 48 39
31 25 19 17 15 14 14 15 14 13 14 15 16 16 13 14 15 16 18 19 20 22 25 32 44 55 74 72 70 72 76 76 73 60 54 52 52 50 52 52 47 65 50 48 41 47 49
35 28 22 19 18 17 16 15 15 14 16 16 17 18 18 17 18 18 17 17 17 18 19 24 34 47 53 67 70 70 74 75 78 73 57 61 61 59 55 44 41 66 53 48 44 48 56
34 30 23 20 20 21 20 18 17 16 18 18 18 19 20 21 20 17 16 14 14 14 15 18 22 32 55 67 68 70 68 67 62 60 61 68 70 64 61 56 45 76 64 61 53 48 56
32 29 26 22 21 21 21 20 20 20 20 21 20 20 20 19 15 13 12 13 13 18 13 23 25 41 71 78 82 80 82 76 74 72 73 79 72 74 74 66 61 78 70 68 63 52 54
22 29 28 26 26 24 23 22 21 20 20 20 18 16 15 14 13 13 14 18 30 42 42 49 60 71 78 85 84 83 72 80 75 78 84 79 78 82 66 61 68 74 85 95 86 74 77
21 17 14 16 17 17 16 16 16 16 15 16 16 16 16 16 16 18 18 26 55 50 37 42 85 85 82 78 79 76 78 71 72 64 78 69 88 79 86 61 85 88 90 92 100 87 73

GFSGBSN_500_rhum_009.txt.gz
RH
23 28 27 42 48 47 48 41 24 36 21 19 14 11 3 1 2 2 2 2 3 4 4 5 6 7 9 9 9 8 9 8 7 8 7 5 4 4 3 3 3 4 5 6 7 9 10
24 26 26 45 43 40 31 18 19 16 15 12 4 2 1 2 2 2 3 3 3 3 4 5 6 7 8 9 10 11 13 14 15 16 14 10 8 7 5 4 4 4 5 7 7 9 11
27 34 36 57 46 40 26 16 17 9 4 2 1 0 1 3 3 3 3 3 4 4 5 6 6 7 8 9 10 11 12 13 15 16 17 18 15 14 15 14 13 9 9 9 12 13 14
40 42 57 55 39 22 19 16 7 3 2 2 3 3 2 2 3 4 3 4 4 5 5 6 7 7 7 8 9 10 11 12 12 13 15 17 18 18 17 15 14 15 14 14 13 14 15
22 45 49 45 26 21 16 7 2 3 4 6 7 6 6 5 5 5 5 5 5 5 6 6 7 8 8 7 7 8 8 9 10 12 13 14 14 15 15 17 17 18 15 14 14 16 16
27 39 29 27 20 13 5 3 2 4 5 6 5 5 4 4 4 4 4 4 4 5 5 5 6 6 6 7 8 8 8 8 9 13 16 17 17 18 18 19 16 16 17 13 10 13 14
36 29 28 15 10 8 2 3 3 5 5 4 4 3 2 3 3 4 4 5 5 5 5 5 4 4 4 5 5 8 11 10 9 11 15 17 18 17 20 19 18 22 20 17 13 10 14
33 28 11 9 10 2 2 4 5 5 4 3 2 3 3 4 4 4 5 6 5 5 5 4 4 4 4 4 5 7 10 14 11 11 14 17 17 16 17 17 18 19 20 19 16 13 10
28 20 8 8 2 2 2 4 6 6 3 3 4 4 4 6 7 7 7 7 7 7 6 6 5 5 5 5 6 10 11 16 17 13 13 14 14 14 12 12 14 15 17 18 20 22 16
23 15 6 3 0 1 2 3 5 6 6 6 6 5 6 8 8 8 9 9 8 7 7 8 7 6 5 5 6 10 12 21 22 22 17 14 14 14 11 11 12 14 16 17 18 20 22
23 12 4 1 0 1 1 2 4 6 7 7 7 7 7 8 8 8 8 7 6 6 6 6 6 6 5 5 5 11 22 27 31 34 32 25 19 18 17 15 13 16 14 19 21 23 26
20 14 5 1 0 1 2 2 3 5 6 7 7 7 7 7 6 4 3 4 5 5 5 5 5 6 6 6 7 16 26 26 25 24 24 28 30 24 21 18 10 14 19 24 22 21 25
18 16 8 2 1 0 2 2 2 3 3 3 4 6 4 2 2 2 2 3 4 4 4 5 6 8 11 13 14 25 25 21 18 16 20 22 26 30 28 23 18 13 15 20 22 25 25
17 16 12 5 2 1 0 1 2 2 2 2 2 1 1 2 3 6 7 6 6 8 8 10 14 14 16 20 27 24 20 15 13 23 28 27 27 30 29 26 20 18 22 24 28 23 24
14 15 14 10 5 4 2 1 1 1 1 2 2 4 10 18 19 13 12 12 11 13 13 14 16 17 20 22 19 16 13 28 31 30 33 34 36 34 32 24 19 18 22 27 26 26 30
10 9 10 9 8 7 6 5 5 5 6 9 14 17 22 26 25 22 20 21 22 22 23 23 23 22 20 24 41 37 38 36 37 37 36 36 34 31 28 24 24 24 30 30 31 34 32
10 9 9 8 7 6 6 6 7 6 5 6 7 13 19 30 29 25 26 30 38 42 38 33 38 41 44 49 45 36 35 37 45 43 43 43 41 34 36 37 38 39 39 36 36 38 37
12 10 10 10 9 8 9 10 9 8 7 7 7 8 12 26 31 30 30 35 37 38 39 38 34 32 38 41 39 34 38 49 58 52 50 49 48 46 47 47 48 42 41 39 37 36 38
12 11 10 10 10 10 10 10 11 10 8 8 7 8 9 16 23 27 26 29 32 34 35 37 44 50 53 52 51 50 48 50 57 57 53 48 45 44 40 39 43 43 45 51 45 47 49
13 12 11 11 10 11 12 13 11 10 10 10 10 9 9 11 14 16 17 21 20 19 20 28 36 38 41 42 44 46 47 46 44 43 42 40 39 37 40 43 51 59 60 60 50 44 45
18 14 12 10 10 10 12 14 12 10 10 11 12 11 10 11 11 12 13 14 16 16 18 21 24 23 23 25 26 30 33 38 40 37 33 32 36 44 48 56 56 54 52 51 49 51 42
22 18 15 12 11 11 13 16 14 11 11 11 13 13 11 11 12 13 14 15 18 20 21 25 29 41 46 52 56 57 50 55 62 67 64 61 48 45 44 47 48 49 58 58 55 57 51
26 22 18 16 15 14 14 16 18 16 14 12 13 14 13 12 11 11 13 16 18 21 23 27 32 30 33 35 52 65 66 69 72 68 74 78 76 69 58 56 59 62 63 57 56 64 57
30 26 22 17 17 17 17 17 18 17 15 12 13 14 15 13 11 13 14 16 17 18 18 21 23 23 28 29 30 35 39 65 66 72 76 75 74 72 61 60 62 72 60 55 52 59 60
34 31 26 22 18 15 14 16 16 16 16 14 12 15 16 16 14 14 16 17 18 18 18 17 16 15 15 17 19 24 31 61 75 79 79 78 71 63 61 64 53 70 62 56 48 44 62
34 35 32 28 22 18 16 14 14 15 16 15 13 15 17 18 19 18 17 17 17 16 14 13 12 15 28 28 42 55 67 72 70 77 87 88 86 81 76 67 52 79 69 60 52 42 51
32 35 36 33 29 24 19 18 17 16 16 16 15 16 19 19 20 21 20 18 16 13 12 12 14 25 46 54 43 47 82 79 73 74 84 92 88 86 86 70 62 80 67 62 62 62 53
36 35 39 37 35 28 22 20 20 19 19 18 18 18 19 20 22 22 20 17 15 14 13 15 19 28 38 54 62 68 71 70 72 80 90 96 88 87 73 71 79 80 75 72 66 55 61
36 37 37 37 34 31 25 21 20 21 21 21 20 20 20 20 19 16 14 14 15 16 16 20 60 67 66 79 76 70 71 66 70 70 82 80 94 79 78 78 100 100 80 72 62 55 56

GFSGBSN_500_rhum_015.txt.gz
RH
12 20 25 36 32 39 45 44 39 34 58 70 68 82 96 94 65 24 9 6 4 2 3 3 4 5 5 4 3 2 3 4 5 4 4 3 4 3 4 4 4 4 5 7 8 9 10
14 22 27 35 42 49 49 43 26 62 66 82 90 95 26 14 11 6 6 4 3 6 6 7 8 8 11 13 13 11 8 6 5 4 4 4 4 4 4 5 5 7 8 9 10 11 10
15 22 28 32 42 48 44 37 20 27 65 41 63 19 12 9 5 5 4 6 8 8 9 10 10 10 11 12 13 14 14 15 15 13 10 10 9 7 7 6 6 7 8 9 9 9 10
14 14 31 29 33 47 43 29 23 41 27 22 15 11 6 4 4 5 6 7 7 7 7 8 9 9 10 10 10 10 12 13 15 16 15 14 14 15 14 14 14 12 10 10 9 10 14
21 27 32 41 47 49 30 22 20 15 14 11 5 3 4 4 4 4 5 6 7 7 8 8 8 8 8 8 8 8 10 12 13 13 14 14 16 16 15 15 13 14 18 16 16 16 15
21 32 42 48 48 42 25 17 11 6 4 2 2 3 3 4 5 5 6 7 9 8 8 8 7 8 8 8 9 9 9 10 13 14 14 14 14 15 16 18 20 20 18 16 13 13 13
26 34 52 49 42 27 19 8 3 2 1 2 3 4 5 5 5 6 8 9 8 7 7 8 6 6 5 6 7 9 12 9 11 12 11 13 14 16 18 20 20 20 19 17 15 17 15
32 46 54 48 27 17 11 2 1 1 2 3 4 4 5 6 10 10 8 7 6 6 6 5 4 4 4 5 7 8 9 12 12 10 10 11 14 15 16 16 15 15 16 18 17 17 20
32 43 47 29 18 14 3 1 1 2 3 3 4 8 10 10 8 7 6 6 6 6 5 5 6 6 6 5 5 7 10 11 14 15 14 12 11 12 12 13 12 12 12 12 14 14 15
36 37 35 24 12 8 2 2 5 3 3 7 10 9 7 6 6 5 6 6 6 7 7 7 7 6 6 6 5 6 6 13 18 20 21 21 18 16 15 12 12 12 13 11 9 9 14
39 33 28 9 11 3 2 6 8 9 10 10 8 5 5 5 5 6 6 7 7 7 7 7 7 8 7 7 7 5 7 11 22 29 30 26 24 24 23 22 19 14 12 11 11 9 10
38 30 15 9 7 3 3 6 6 7 8 8 6 5 4 5 6 7 8 9 9 8 8 7 7 7 7 7 7 6 7 9 18 27 25 21 18 18 20 21 21 22 18 17 15 12 14
40 29 10 8 3 3 3 4 6 6 7 6 5 4 5 7 8 9 9 9 9 9 8 7 6 6 7 7 9 11 13 15 22 23 19 15 13 13 16 19 21 22 24 22 18 14 17
38 31 13 6 2 3 3 4 6 6 5 5 4 4 5 6 7 8 8 9 9 7 5 4 4 4 5 10 15 15 17 20 20 17 12 19 25 25 27 25 26 29 29 26 21 18 20
38 34 17 3 2 3 3 5 5 5 4 4 5 6 7 7 8 8 8 6 3 2 3 4 5 7 12 15 16 17 15 16 18 24 26 26 30 33 33 35 33 36 31 30 29 27 26
37 34 21 5 2 3 3 4 5 5 5 6 6 7 7 7 6 5 4 2 7 10 11 12 14 16 20 23 25 31 38 37 32 29 25 28 28 29 30 31 31 32 30 29 30 30 29
41 34 27 10 3 3 2 3 4 5 5 5 6 6 6 4 3 2 3 18 17 20 25 31 32 30 29 33 36 38 36 32 29 28 28 32 37 41 41 41 40 39 38 37 35 32 31
47 37 30 18 3 3 3 2 3 3 3 4 5 4 3 2 3 11 24 24 23 28 34 34 35 34 31 28 30 32 33 32 34 36 40 41 40 40 36 35 33 32 33 34 34 31 30
47 37 30 23 11 4 3 3 2 2 2 3 3 2 3 9 18 26 30 27 28 30 32 32 29 31 32 33 30 25 21 20 22 25 28 33 35 39 42 39 38 41 41 41 43 40 43
42 40 29 22 19 10 5 4 2 2 2 1 3 6 7 9 17 21 31 30 31 25 26 26 18 17 16 15 22 32 35 36 40 45 48 44 44 52 56 59 53 52 62 65 64 62 55
38 38 32 21 18 16 12 9 7 6 5 5 6 7 8 10 11 14 18 18 16 14 16 15 14 13 15 25 28 30 30 33 31 30 32 39 46 45 48 54 56 53 67 74 72 72 62
35 33 29 22 18 15 11 8 7 7 7 8 8 9 9 11 10 10 10 11 11 12 13 14 13 16 19 23 22 24 21 18 18 28 40 46 45 47 47 52 56 56 69 72 66 61 58
37 32 29 24 19 14 11 10 9 9 10 9 10 10 12 12 11 10 10 10 11 13 13 14 16 16 17 18 18 20 17 14 14 21 34 46 54 56 54 50 48 52 65 71 78 85 81
32 35 29 25 20 16 13 11 10 10 10 10 11 12 12 13 13 11 10 10 10 11 13 15 17 17 17 17 16 16 14 12 13 18 43 60 62 54 47 52 52 64 66 66 73 83 78
20 32 33 27 20 17 15 13 11 11 11 11 11 12 12 13 14 14 13 11 10 11 14 15 16 16 17 16 16 15 13 13 15 19 32 52 62 55 51 51 55 87 82 83 76 72 70
17 22 33 29 23 19 16 14 12 11 12 13 13 13 13 13 14 14 15 14 13 12 13 15 16 16 16 18 18 16 15 22 36 45 48 60 67 61 59 58 60 84 77 73 63 57 57
19 19 26 34 30 24 21 17 14 13 12 14 16 18 16 15 14 14 14 16 16 17 18 18 19 19 20 19 16 20 45 56 54 55 61 71 74 63 61 62 65 70 66 52 49 48 48
25 21 22 31 33 29 26 22 19 16 15 15 15 17 18 18 17 16 14 14 15 16 17 19 20 21 20 17 17 31 41 47 50 58 75 79 74 61 56 65 63 58 53 57 56 62 68
31 25 24 26 33 34 32 29 25 20 17 16 16 16 17 16 16 16 16 16 16 16 18 19 21 20 18 17 23 30 47 48 52 60 73 77 77 63 64 61 70 68 60 69 74 77 76

GFSGBSN_500_rhum_021.txt.gz
RH
32 30 30 24 12 21 34 34 47 54 55 55 64 75 70 61 67 63 46 40 40 41 44 19 15 15 15 21 16 19 21 20 18 16 17 20 19 19 13 10 11 6 3 3 4 5 6
32 31 24 19 18 30 34 38 46 55 50 45 81 69 66 67 64 43 48 69 45 45 20 14 13 13 15 16 14 13 12 12 11 14 12 11 5 3 3 4 22 3 3 5 6 7 7
33 28 16 13 19 34 35 44 47 46 59 73 65 73 79 98 87 81 64 26 10 9 6 6 6 6 7 8 8 7 7 6 6 5 4 4 4 6 6 7 7 8 9 10 11 12 11
36 16 14 13 24 46 48 48 45 35 58 67 77 88 94 82 62 41 13 6 6 8 10 12 13 14 15 13 9 7 5 4 4 4 4 5 8 10 9 11 10 10 11 39 13 11 11
18 14 13 13 27 33 40 50 26 59 80 54 39 19 17 28 13 6 5 9 14 16 16 16 17 18 20 18 18 16 15 14 12 12 12 10 11 14 12 14 16 16 79 36 14 11 11
13 13 13 14 28 30 39 39 39 59 43 18 16 18 8 6 4 5 11 16 17 16 15 14 13 14 14 14 14 15 15 16 15 15 15 14 15 17 20 63 71 68 37 18 30 15 14
12 12 14 23 30 34 45 31 21 19 19 15 8 6 4 5 9 13 15 16 14 13 10 9 11 9 9 10 11 13 15 16 16 17 17 17 34 79 20 20 22 21 21 22 21 20 18
12 14 24 33 42 45 42 24 18 16 13 6 5 4 6 10 12 15 14 9 11 11 12 10 8 8 8 9 10 10 10 11 13 15 18 18 20 20 19 19 18 16 15 16 17 18 20
13 22 28 38 46 50 26 14 11 7 5 4 4 6 9 11 14 14 12 12 11 12 8 5 5 6 6 7 9 10 10 14 12 12 12 17 14 15 15 15 15 14 13 12 12 12 13
16 31 40 52 52 44 15 7 4 4 4 4 6 8 9 11 12 12 12 11 8 6 5 6 7 7 7 6 6 6 6 12 16 19 19 18 15 15 15 16 18 16 16 14 13 13 54
25 40 48 52 41 20 6 3 3 3 4 5 6 7 7 10 11 12 10 6 6 7 8 8 8 9 8 8 7 7 6 6 8 16 23 25 27 26 25 23 22 22 21 21 22 23 21
33 46 49 44 27 14 3 2 3 3 4 4 6 6 9 11 12 8 7 8 9 10 9 9 8 8 7 6 6 6 6 6 6 9 16 20 24 22 19 16 14 13 14 19 20 23 29
44 48 49 38 16 10 2 2 3 3 4 5 6 7 10 10 8 7 7 8 9 8 8 8 8 8 7 5 4 5 7 11 11 14 16 19 19 15 14 18 19 18 21 28 29 31 76
51 47 40 28 12 5 2 3 4 4 5 5 7 9 8 8 7 7 8 8 8 8 8 8 8 7 4 4 5 8 12 13 13 14 17 16 17 22 24 26 26 28 31 32 35 38 59
54 48 37 18 12 4 2 4 5 5 5 8 9 8 6 7 7 8 8 9 9 9 9 9 6 3 4 5 8 14 16 15 14 19 23 23 20 20 23 25 29 34 35 37 36 32 32
60 50 34 13 9 4 3 4 4 4 8 10 8 7 7 7 8 8 9 9 9 9 7 4 6 8 11 13 18 21 22 27 32 25 20 21 25 31 33 33 33 34 32 34 33 35 35
66 53 34 11 7 5 3 4 4 8 11 9 7 7 7 7 7 8 8 8 8 6 4 13 15 21 22 23 21 21 28 26 23 25 26 25 27 33 36 38 38 38 41 46 44 42 42
69 56 40 13 6 5 4 6 8 10 10 8 7 8 7 6 6 7 7 8 5 2 16 21 28 29 23 22 21 23 25 21 20 26 32 34 34 35 38 39 41 42 45 44 45 48 45
75 61 49 25 6 6 4 5 8 9 9 8 7 7 6 6 6 7 7 5 3 15 21 25 27 24 25 25 20 15 15 27 30 32 31 25 29 33 31 27 26 38 43 44 48 47 55
76 68 52 42 10 7 5 4 4 5 5 6 6 6 5 5 6 6 6 3 12 25 23 25 22 19 13 12 10 12 27 24 25 19 17 22 24 25 32 36 38 41 46 46 42 42 48
75 69 52 46 31 6 6 5 3 3 4 4 5 5 4 5 6 6 4 8 23 27 24 24 20 13 11 9 10 18 21 20 17 15 14 14 18 25 41 44 42 43 49 52 51 52 52
68 76 60 47 37 17 7 5 4 3 4 4 4 4 4 5 5 4 6 13 18 27 25 23 14 10 9 8 10 18 16 16 16 14 14 14 18 38 46 40 35 38 51 52 49 52 56
56 75 63 46 35 30 12 6 5 4 4 4 4 4 4 4 4 5 9 10 12 17 16 10 9 9 9 10 11 12 13 13 14 14 16 16 18 36 36 32 34 38 46 49 48 47 51
52 64 66 53 42 29 25 11 6 5 4 4 4 4 4 4 5 7 8 8 8 8 8 8 8 9 9 10 11 12 13 14 14 17 18 16 18 29 29 31 35 39 47 54 50 50 53
50 56 62 53 47 29 25 22 12 6 4 4 4 3 4 5 8 10 10 10 10 10 9 9 9 9 10 12 13 14 14 15 17 19 18 18 22 28 31 36 37 49 55 58 54 57 51
38 52 53 55 51 38 25 22 18 12 8 6 4 4 6 9 10 11 12 12 12 10 10 9 9 9 11 12 14 14 14 17 19 20 18 19 24 28 36 43 46 58 51 60 59 54 58
28 48 49 48 48 42 28 24 21 18 13 10 9 8 10 11 15 12 13 13 13 12 12 12 12 13 13 14 14 16 18 19 20 20 19 21 24 30 41 45 53 59 62 64 62 68 67
24 38 49 46 41 42 35 29 24 19 15 14 14 14 14 13 15 15 14 14 14 14 14 15 15 15 15 16 17 18 18 20 21 21 20 21 25 36 37 51 59 60 57 56 57 64 60
24 30 37 44 43 39 39 37 31 24 19 17 15 14 14 13 13 13 15 15 15 15 15 15 15 16 16 17 17 17 18 19 21 20 22 25 30 36 41 58 73 75 71 65 73 71 65

GFSGBSN_500_rhum_024.txt.gz
RH
63 25 24 62 31 31 17 18 33 33 50 49 52 56 59 54 57 51 55 59 57 39 38 44 35 47 15 16 15 20 19 16 18 28 30 66 96 86 77 73 34 32 32 10 5 3 5
43 69 58 41 32 27 15 27 34 39 46 56 55 58 68 64 64 50 60 52 46 55 33 36 35 18 22 22 26 24 19 17 19 31 26 58 95 82 62 62 71 7 3 3 4 5 6
77 71 42 36 29 16 20 31 32 41 50 60 58 73 75 73 67 58 50 42 56 40 57 25 19 20 18 16 21 19 20 16 13 12 17 8 10 43 44 21 6 3 5 7 8 8 8
74 60 68 34 17 14 26 43 41 49 46 61 68 76 75 71 77 87 78 68 28 41 32 16 16 17 17 13 12 10 8 10 7 5 4 4 4 4 7 7 7 8 10 38 16 12 11
75 55 37 21 13 16 36 48 48 44 46 57 59 82 94 93 98 80 37 14 13 8 8 9 13 10 8 6 5 5 5 4 4 5 7 8 7 8 8 11 17 27 92 91 52 26 12
71 40 30 14 13 18 33 40 52 32 59 69 88 72 95 45 28 17 8 6 6 8 11 13 13 14 16 18 18 18 17 14 12 13 12 11 12 17 16 65 98 97 66 76 50 10 12
49 37 16 14 13 17 30 36 48 67 60 35 59 19 20 27 11 6 6 8 12 15 16 17 19 17 23 22 21 20 19 18 18 18 16 17 19 96 74 34 48 64 52 50 83 15 19
42 27 13 13 16 24 32 48 35 44 50 19 20 17 10 6 6 10 15 15 17 17 17 15 15 13 13 13 14 15 16 17 18 18 20 24 40 48 54 23 23 43 28 38 21 18 20
47 14 13 15 32 37 43 44 24 24 21 14 10 9 5 5 13 17 16 14 14 16 13 9 8 8 8 8 9 11 11 11 13 15 16 18 21 21 21 21 20 18 17 14 19 13 16
41 13 13 30 40 43 48 28 19 22 12 8 7 5 6 12 16 16 16 14 14 12 8 6 6 7 6 7 8 8 10 13 15 16 14 13 14 14 14 13 15 17 14 16 16 17 34
35 13 18 29 45 50 36 16 16 10 8 5 6 9 13 15 13 14 14 14 9 7 7 8 8 8 8 7 7 6 6 6 9 18 21 22 24 24 22 22 23 21 20 20 21 21 26
29 14 29 45 50 49 18 10 8 7 6 5 9 11 13 15 14 13 12 8 6 16 8 9 9 8 7 6 6 6 6 6 6 8 10 14 17 20 21 19 16 14 13 12 12 17 21
20 20 41 51 42 28 9 6 5 7 5 7 9 10 12 14 13 12 8 7 8 9 8 9 8 8 7 6 4 4 5 8 10 11 12 15 16 17 15 15 21 23 24 26 70 67 71
16 31 48 46 31 16 5 4 6 5 6 8 8 9 12 14 13 8 8 9 8 9 10 10 10 9 7 5 4 5 9 12 14 15 16 28 16 20 23 23 24 24 30 30 39 68 61
17 48 72 38 22 12 4 4 6 5 6 7 7 8 12 12 10 8 8 9 9 10 10 10 9 7 4 4 6 9 15 15 14 14 17 25 23 20 22 29 32 34 35 35 36 37 36
28 56 84 32 14 8 4 5 5 4 5 6 6 8 11 12 9 8 9 9 9 9 9 9 5 4 7 11 15 19 21 20 21 29 23 20 23 28 29 31 34 36 36 38 36 36 34
53 53 62 22 12 5 3 5 5 4 5 6 7 10 11 10 9 9 9 9 9 8 8 5 8 12 18 18 24 24 28 27 26 22 23 25 32 35 37 38 37 33 35 39 41 46 46
65 51 48 16 11 5 4 5 5 5 5 6 8 10 10 9 10 9 9 8 8 8 5 7 19 28 30 27 23 20 21 23 21 22 31 32 30 33 33 33 32 35 36 36 36 44 43
68 53 40 14 9 6 4 5 6 6 5 8 11 11 10 9 8 8 7 7 8 6 3 18 26 29 27 26 24 23 20 18 25 31 31 25 25 24 26 27 27 26 30 29 29 40 50
73 60 44 15 9 8 5 5 6 6 7 11 10 9 8 8 7 7 7 7 6 4 12 22 29 27 21 20 18 15 15 24 29 27 16 17 17 18 26 39 34 31 33 35 40 38 39
74 67 58 24 11 9 6 5 5 6 10 11 10 8 7 6 6 6 6 6 5 5 24 25 28 24 21 12 11 10 18 20 18 15 15 15 16 16 22 31 30 29 32 37 39 48 47
80 70 60 46 14 11 6 5 5 6 8 10 9 8 7 6 6 5 5 6 4 11 27 26 27 24 16 11 9 10 14 17 16 15 14 15 16 17 17 23 26 27 36 32 39 48 53
83 79 64 52 37 13 10 6 5 5 6 8 8 6 6 6 5 5 6 5 7 16 25 29 28 20 9 9 10 10 12 15 14 14 14 16 18 18 17 20 23 26 32 33 41 45 56
87 84 70 58 47 29 12 8 6 5 5 5 4 5 6 5 5 5 5 5 7 16 19 20 16 13 12 9 9 10 12 13 13 14 15 18 18 18 18 19 22 27 31 33 43 47 57
86 88 81 65 55 40 25 11 8 6 5 4 4 4 5 5 5 5 5 5 7 12 12 10 12 11 8 9 10 11 13 14 14 15 16 19 19 19 19 19 21 24 25 38 42 55 50
70 87 82 77 64 46 34 23 11 8 6 5 4 4 4 5 5 5 6 5 10 8 12 12 11 10 9 10 10 12 13 14 15 16 18 18 19 20 20 20 21 27 24 33 38 48 49
45 77 83 82 84 59 38 30 24 13 9 7 6 5 4 5 6 6 4 10 11 12 12 12 11 10 10 11 11 12 13 15 15 17 18 19 19 20 20 21 22 25 26 26 42 57 68
31 61 68 73 82 68 54 34 28 24 17 12 9 7 5 5 8 7 9 10 13 14 13 14 13 13 13 14 14 14 15 16 17 18 18 18 20 21 22 23 24 24 24 24 43 77 70
32 42 59 60 65 69 57 45 36 29 25 19 14 13 11 8 8 11 13 15 15 15 15 15 15 16 16 16 16 16 16 17 17 18 20 20 23 23 23 24 29 27 24 39 67 79 78